Skip Page Navigation
NASA JPL Caltech
NASA Logo - Jet Propulsion Laboratory + View the NASA Portal
+ Center for Near-Earth Object Studies
JPL Home Earth Solar System Stars & Galaxies Technology
JPL Solar System Dynamics
BODIES ORBITS EPHEMERIDES TOOLS PHYSICAL DATA DISCOVERY FAQ SITE MAP
JPL Small-Body Database Browser
Search: [ help ]  
215450 (2002 OC16)
Classification: Main-belt Asteroid          SPK-ID: 2215450
Ephemeris | Orbit Diagram | Orbital Elements | Mission Design | Physical Parameters | Discovery Circumstances ]

[ show orbit diagram ]
Orbital Elements at Epoch 2459000.5 (2020-May-31.0) TDB
Reference: JPL 13 (heliocentric ecliptic J2000)
 Element Value Uncertainty (1-sigma)   Units 
e .1025394612161064 4.5216e-08  
a 2.367207946160223 1.6031e-08 au
q 2.124475718774468 1.1019e-07 au
i 7.39129572698601 5.9009e-06 deg
node 235.014182730187 4.5775e-05 deg
peri 62.57949125125638 5.7354e-05 deg
M 325.3828848368955 3.7704e-05 deg
tp 2459128.420872804995
(2020-Oct-05.92087281)
0.00013987 TDB
period 1330.310570156362
3.64
1.3514e-05
3.7e-08
d
yr
n .2706135003931347 2.7489e-09 deg/d
Q 2.609940173545978 1.7675e-08 au
  Orbit Determination Parameters
   # obs. used (total)      283  
   data-arc span      7062 days (19.33 yr)  
   first obs. used      1999-10-12  
   last obs. used      2019-02-11  
   planetary ephem.      DE431  
   SB-pert. ephem.      SB431-N16  
   condition code      0  
   norm. resid. RMS      .58729  
   source      ORB  
   producer      Otto Matic  
   solution date      2020-Feb-25 03:23:28  

Additional Information
 Earth MOID = 1.12051 au 
 Jupiter MOID = 2.54299 au 
 T_jup = 3.529 
[ show covariance matrix ]

Ephemeris | Orbit Diagram | Orbital Elements | Mission Design | Physical Parameters | Discovery Circumstances ]

Physical Parameter Table
Parameter Symbol Value Units Sigma Reference Notes
absolute magnitude H 16.5   n/a MPO382245  

215450 (2002 OC16)          Discovered 2002-Jul-18 by LINEAR at Socorro
Reference: 20090607/Numbers.arcLast Updated: 2009-06-08
Ephemeris | Orbit Diagram | Orbital Elements | Mission Design | Physical Parameters | Discovery Circumstances ]
ABOUT SSD CREDITS/AWARDS PRIVACY/COPYRIGHT GLOSSARY LINKS
FirstGov 2020-Aug-08 07:40 UT
(server date/time)  
NASA Home Page
Site Manager:   Ryan S. Park
Webmaster  Alan B. Chamberlin